This is the latest recevied weather packets stored in our database for station/object K9JWM. If no packets are shown the sender has not sent any weather packets the latest 10 day(s).
| Time | Temp. | Humidity | Pressure | Rain* | Wind** | Luminosity | Snow |
|---|---|---|---|---|---|---|---|
| 1777514995 | 3.89° C | 65% | 1017.7 hPa | 0 mm | - | - | - |
| 1777514094 | 3.89° C | 64% | 1017.6 hPa | 0 mm | - | - | - |
| 1777513194 | 3.89° C | 63% | 1017.4 hPa | 0 mm | - | - | - |
| 1777512294 | 4.44° C | 62% | 1017.3 hPa | 0 mm | - | - | - |
| 1777511395 | 4.44° C | 59% | 1017.3 hPa | 0 mm | - | - | - |
| 1777510495 | 5° C | 60% | 1017.3 hPa | 0 mm | - | - | - |
| 1777509595 | 5° C | 58% | 1017.2 hPa | 0 mm | - | - | - |
| 1777508695 | 5° C | 57% | 1017 hPa | 0 mm | - | - | - |
| 1777507795 | 5° C | 60% | 1017.1 hPa | 0 mm | - | - | - |
| 1777506894 | 5° C | 59% | 1017.1 hPa | 0 mm | - | - | - |
| 1777505993 | 5° C | 60% | 1017 hPa | 0 mm | - | - | - |
| 1777505094 | 5° C | 56% | 1017 hPa | 0 mm | - | - | - |
| 1777504195 | 5° C | 56% | 1017 hPa | 0 mm | - | - | - |
| 1777503294 | 5.56° C | 54% | 1016.9 hPa | 0 mm | - | - | - |
| 1777502394 | 5.56° C | 54% | 1016.9 hPa | 0 mm | - | - | - |
| 1777501494 | 5.56° C | 52% | 1016.8 hPa | 0 mm | - | - | - |
| 1777500593 | 5.56° C | 53% | 1016.8 hPa | 0 mm | - | - | - |
| 1777499695 | 5.56° C | 51% | 1016.7 hPa | 0 mm | - | - | - |
| 1777498793 | 6.11° C | 53% | 1016.7 hPa | 0 mm | - | - | - |
| 1777497894 | 6.11° C | 51% | 1016.6 hPa | 0 mm | - | - | - |
| 1777496993 | 6.11° C | 52% | 1016.7 hPa | 0 mm | - | - | - |
| 1777496093 | 6.67° C | 52% | 1016.9 hPa | 0 mm | - | - | - |
| 1777495194 | 6.11° C | 53% | 1016.8 hPa | 0 mm | - | - | - |
| 1777494294 | 6.11° C | 50% | 1016.8 hPa | 0 mm | - | - | - |
| 1777493394 | 6.11° C | 53% | 1016.8 hPa | 0 mm | - | - | - |
* Rain latest hour (hover to see other rain measurements)
** Current wind speed in m/s (hover to see current wind gust speed)